User: anonymous   Login
Location: Wildcat Hills Observatory
(41.6350°N, 103.6812°W)
Time: 03:53:02
(UTC-07:00)
Language:

Cosmos 1634 Rocket - Orbit

View from above orbital plane
View from above orbital plane
View from above satellite
View from above satellite

Ground track
Ground track

The orbit data is extracted from the following two-line orbital elements,

1 15598U 85022B   16042.83642519 +.00000046 +00000-0 +31617-4 0  9998
2 15598 082.9375 112.3307 0023089 046.4990 090.0220 13.76547920552622
Epoch (UTC): 11 February 2016 20:04:27
Eccentricity: 0.0023089
inclination: 82.9375°
perigee height: 959 km
apogee height: 993 km
right ascension of ascending node: 112.3307°
argument of perigee: 46.4990°
revolutions per day: 13.76547920
mean anomaly at epoch: 90.0220°
orbit number at epoch: 55262

The dashed part of the orbit path shows where the satellite is in the earth's shadow,  

DLR